This demonstration page uses our WeatherBlox Daily Observations layout. Learn more.

Left ArrowRight Arrow

34.16533, -84.80231

Hourly Observations for August 14, 2020

Temp ( °F °C ) Dew Point ( °F °C ) Humidity (%) Winds ( mph kmh ) Pressure ( in mb ) Visibility ( mi km ) Precip ( " mm )
12:09 am 00:09 Partly Cloudy 76 24.4 72 22.2 88 88 Calm 29.98 1015 10 16 0.00 0.00
12:30 am 00:30 Mostly Clear 75 23.9 72 22.2 90 90 Calm 29.98 1015 10 16 0.00 0.00
12:53 am 00:53 Partly Cloudy 75 23.9 72 22.2 90 90 Calm 29.96 1015 10 16 0.00 0.00
1:53 am 01:53 Mostly Clear 74 23.3 71 21.7 91 91 Calm 29.96 1014 10 16 0.00 0.00
2:12 am 02:12 Mostly Cloudy 74 23.3 71 21.7 91 91 Calm 29.98 1015 10 16 0.00 0.00
2:21 am 02:21 Mostly Cloudy 75 23.9 71 21.7 88 88 Calm 29.97 1015 10 16 0.00 0.00
2:53 am 02:53 Cloudy 75 23.9 72 22.2 90 90 Calm 29.95 1014 10 16 0.00 0.00
3:53 am 03:53 Mostly Cloudy 75 23.9 71 21.7 88 88 E 3 6 29.95 1014 10 16 0.00 0.00
4:07 am 04:07 Mostly Cloudy 74 23.3 71 21.7 91 91 Calm 29.97 1015 10 16 0.00 0.00
4:15 am 04:15 Mostly Cloudy 74 23.3 71 21.7 91 91 Calm 29.96 1015 10 16 0.00 0.00
4:53 am 04:53 Cloudy 74 23.3 71 21.7 91 91 Calm 29.94 1014 10 16 0.00 0.00
5:53 am 05:53 Clear 73 22.8 70 21.1 90 90 Calm 29.93 1014 9 14 0.00 0.00
6:53 am 06:53 Clear 73 22.8 71 21.7 94 94 S 3 6 29.93 1014 9 14 0.00 0.00
7:53 am 07:53 Sunny 75 23.9 71 21.7 88 88 Calm 29.94 1014 9 14 0.00 0.00
8:10 am 08:10 Mostly Sunny 75 23.9 71 21.7 88 88 Calm 29.95 1014 10 16 0.00 0.00
8:53 am 08:53 Mostly Sunny 76 24.4 71 21.7 85 85 S 6 9 29.96 1014 10 16 0.00 0.00
9:18 am 09:18 Mostly Cloudy 77 25 71 21.7 82 82 undefined N/A 29.97 1015 10 16 0.00 0.00
9:53 am 09:53 Cloudy 77 25 71 21.7 82 82 SSE 3 6 29.97 1015 10 16 0.00 0.00
10:42 am 10:42 Cloudy 77 25 72 22.2 85 85 Calm 29.98 1015 10 16 0.00 0.00
10:53 am 10:53 Cloudy 78 25.6 72 22.2 82 82 ESE 3 6 29.97 1015 10 16 0.00 0.00
11:10 am 11:10 Cloudy 78 25.6 72 22.2 82 82 Calm 29.99 1016 10 16 0.00 0.00
11:53 am 11:53 Cloudy 79 26.1 72 22.2 79 79 SE 3 6 29.98 1015 10 16 0.00 0.00
12:34 pm 12:34 Cloudy 80 26.7 72 22.2 76 76 ESE 3 6 29.98 1015 10 16 0.00 0.00
12:41 pm 12:41 Cloudy with Light Rain 79 26.1 72 22.2 79 79 Calm 29.98 1015 9 14 0.00 0.00
12:53 pm 12:53 Cloudy with Light Rain 80 26.7 73 22.8 79 79 Calm 29.97 1015 10 16 0.00 0.00
1:11 pm 13:11 Cloudy with Light Rain 80 26.7 74 23.3 82 82 Calm 29.97 1015 9 14 0.00 0.00
1:53 pm 13:53 Mostly Cloudy 82 27.8 73 22.8 74 74 SSE 3 6 29.93 1014 10 16 0.00 0.00
2:53 pm 14:53 Mostly Cloudy 85 29.4 72 22.2 65 65 SSW 3 6 29.90 1013 10 16 0.00 0.00
3:53 pm 15:53 Mostly Sunny 88 31.1 72 22.2 59 59 VRB 3 6 29.88 1012 10 16 0.00 0.00
4:53 pm 16:53 Mostly Cloudy 84 28.9 74 23.3 72 72 Calm 29.87 1011 10 16 0.00 0.00
5:53 pm 17:53 Mostly Cloudy 86 30 72 22.2 63 63 N 3 6 29.85 1011 10 16 0.00 0.00
6:20 pm 18:20 Partly Cloudy with Nearby Thunderstorms 84 28.9 73 22.8 70 70 Calm 29.85 1011 10 16 0.00 0.00
6:35 pm 18:35 Mostly Cloudy 83 28.3 73 22.8 72 72 Calm 29.86 1011 10 16 0.00 0.00
6:53 pm 18:53 Cloudy 83 28.3 73 22.8 72 72 VRB 3 6 29.85 1011 10 16 0.00 0.00
7:53 pm 19:53 Mostly Cloudy 80 26.7 76 24.4 87 87 ESE 3 6 29.87 1012 10 16 0.01 0.25
8:53 pm 20:53 Mostly Clear 78 25.6 75 23.9 90 90 S 3 6 29.88 1012 10 16 0.00 0.00
9:53 pm 21:53 Partly Cloudy 78 25.6 74 23.3 87 87 Calm 29.88 1012 10 16 0.00 0.00
10:53 pm 22:53 Cloudy 77 25 74 23.3 90 90 Calm 29.90 1012 10 16 0.01 0.25
11:53 pm 23:53 Partly Cloudy 76 24.4 72 22.2 88 88 Calm 29.89 1012 10 16 0.00 0.00

Powered by AerisWeather